Theta_e
328 324 323 318 305 303 296 297 299 301 301 303 305 302 300 302 301 296 317 323 325 327 339 343 347 350 353 353 354 354 353 352 350 350 349 348 347 346 346 345 344 343 343 343 342 343 347 354 353
321 322 319 314 299 295 294 297 299 300 302 303 303 302 301 299 307 307 314 322 323 328 332 342 344 351 353 353 353 353 352 352 351 350 348 348 347 346 345 344 345 343 343 342 342 342 348 353 352
322 320 311 305 298 293 294 299 300 302 304 302 301 302 300 301 306 307 312 318 322 324 332 342 345 348 350 351 352 352 352 352 351 351 348 347 347 347 346 345 346 346 345 343 341 342 348 352 351
315 314 309 298 295 297 297 299 301 301 302 304 302 298 303 308 307 310 313 313 319 323 329 340 342 343 345 349 350 351 350 350 350 350 350 348 348 348 347 346 346 347 347 348 344 344 346 351 350
314 309 301 297 296 297 299 302 301 300 299 301 300 299 301 307 308 311 312 316 315 319 328 334 338 338 340 344 348 349 350 348 347 347 348 348 347 347 346 346 346 347 347 346 348 348 346 350 349
306 305 297 294 295 299 301 302 300 300 302 301 298 298 300 307 307 309 311 313 317 318 326 331 333 335 336 338 342 347 348 348 347 345 346 346 346 346 346 346 346 346 345 346 348 348 347 349 347
304 302 296 294 296 298 300 302 299 299 299 298 301 297 301 302 306 308 307 308 309 310 311 317 327 331 330 333 335 339 343 345 346 346 343 343 343 343 343 342 344 345 344 346 347 346 347 348 346
305 302 297 295 295 296 299 299 302 300 298 303 303 296 295 300 305 305 305 305 305 308 309 310 310 313 326 330 332 332 336 339 341 341 339 336 336 336 337 336 340 344 344 345 345 345 346 346 344
309 299 296 295 296 297 301 299 302 302 300 301 303 298 299 301 303 301 300 301 302 305 306 308 310 311 311 317 326 328 331 334 334 335 332 331 332 333 332 332 335 339 341 342 343 344 344 340 337
302 299 297 299 299 298 300 299 297 298 298 297 299 299 300 299 298 297 296 297 298 299 302 303 306 311 312 314 318 326 329 332 334 334 334 333 332 331 331 328 330 335 333 336 341 342 337 333 333
302 298 300 301 302 301 299 298 298 297 294 296 294 294 297 296 296 295 295 295 296 298 299 300 301 304 310 313 315 320 324 329 331 331 332 334 333 330 327 328 326 327 322 329 332 331 332 332 331
297 302 302 303 302 300 297 298 297 297 296 297 296 296 295 294 294 294 294 295 295 296 297 298 300 301 303 307 312 314 318 323 328 329 330 330 330 329 327 327 328 326 327 322 324 323 323 326 328
299 299 301 301 300 298 300 297 297 295 297 296 296 296 293 293 293 293 294 295 295 295 296 297 298 299 302 303 306 308 314 317 322 326 328 329 329 328 328 326 327 327 327 325 322 321 321 320 321
300 300 300 300 299 299 297 295 297 295 295 294 295 293 292 292 292 292 292 293 293 294 295 296 297 298 301 302 303 306 309 315 320 323 326 327 328 327 327 325 326 325 327 327 323 321 319 318 319
299 295 297 297 298 297 297 294 294 295 296 293 292 291 292 292 293 291 291 291 291 293 295 296 296 297 297 299 301 305 308 311 315 319 322 324 326 326 326 325 326 326 326 326 324 322 321 319 319
295 294 291 297 298 297 295 288 292 295 294 290 289 287 289 291 292 292 292 290 290 292 293 295 297 295 296 296 297 302 305 307 308 314 317 321 323 325 325 326 326 326 325 324 323 322 320 320 319
294 288 290 293 297 295 294 289 293 294 291 288 287 287 288 289 289 288 289 289 289 290 291 292 294 293 293 294 296 299 303 302 304 305 308 311 316 321 323 324 326 325 324 323 322 320 320 318 319
286 286 289 289 293 293 291 291 292 291 289 286 285 285 285 286 286 288 289 290 290 289 289 290 292 293 293 294 294 295 299 301 301 301 302 303 310 310 316 321 323 324 322 320 321 318 320 319 318
291 289 288 292 294 289 290 289 291 289 287 285 284 284 284 285 286 288 289 288 288 288 288 290 291 291 292 292 291 292 292 295 298 300 301 302 306 305 307 306 320 322 321 320 319 318 316 317 318
291 289 288 290 294 290 289 289 288 288 287 286 285 283 283 284 285 286 287 286 287 287 288 290 291 291 292 292 292 292 292 294 295 299 300 300 300 302 304 304 304 319 320 319 318 317 315 316 318
289 287 286 286 289 290 288 285 284 285 285 286 286 285 285 283 284 285 286 284 286 287 288 290 291 291 291 292 292 291 292 293 292 293 296 299 299 300 301 305 305 304 320 318 317 316 315 313 316
286 288 288 287 283 278 285 276 282 282 282 284 285 282 282 282 284 284 284 285 286 287 289 290 290 290 291 292 290 289 288 288 290 292 295 296 299 299 301 303 304 304 307 317 318 317 316 315 312
288 288 286 285 283 281 282 278 281 283 280 282 282 282 281 282 283 283 284 286 287 288 288 289 289 289 290 288 287 287 287 288 288 291 292 293 297 299 300 298 302 303 301 312 317 317 316 316 314
290 287 286 285 282 274 280 279 280 280 283 281 282 281 282 282 282 284 286 286 286 287 287 287 287 286 287 285 282 281 282 283 285 288 289 291 294 297 297 297 298 302 304 308 316 316 316 316 315
288 282 275 275 274 274 280 276 280 281 282 281 280 280 280 281 282 283 284 284 285 285 286 285 284 283 282 280 279 279 279 280 281 283 287 291 293 294 295 296 297 298 299 302 313 315 315 315 314
283 281 275 269 271 273 277 273 279 282 283 283 282 281 281 281 282 283 284 284 284 285 284 283 282 280 280 279 278 278 278 278 279 282 283 284 291 295 296 296 297 296 297 302 303 313 315 314 314
283 278 282 275 268 267 273 279 281 282 281 281 280 280 279 280 282 282 283 283 284 284 282 281 280 279 278 277 277 276 277 277 278 279 281 282 285 293 296 295 294 295 295 297 301 299 312 313 313
280 283 275 275 264 264 273 275 276 277 278 279 278 278 278 280 282 282 282 283 283 283 282 281 279 277 277 276 275 275 275 276 276 278 278 280 284 286 294 294 294 293 293 294 300 299 308 311 312
277 276 277 277 276 268 265 271 279 278 279 277 278 279 279 280 280 281 282 282 282 281 280 279 278 276 275 275 274 273 273 274 275 276 277 279 282 283 287 294 293 291 291 292 293 300 307 309 310
279 278 278 270 271 272 271 272 283 281 279 279 279 279 279 281 280 281 281 281 280 279 278 277 276 275 275 274 273 273 272 273 273 274 276 278 278 283 283 284 292 290 291 291 292 295 297 307 308
Wind_Speed
8 9 6 2 2 2 5 5 2 8 5 6 6 4 2 5 4 2 2 9 7 4 7 5 5 6 6 8 9 9 11 12 13 12 12 11 10 11 11 11 10 11 12 12 11 11 11 8 9
9 6 3 4 1 2 4 3 8 7 5 5 4 2 4 4 9 3 7 10 11 6 8 4 8 3 6 7 7 8 10 11 13 13 12 11 11 10 12 12 11 13 13 13 13 12 12 10 11
8 5 2 3 2 5 3 7 8 4 6 5 5 3 2 4 8 6 6 8 9 9 6 9 4 1 4 5 6 8 8 9 10 11 12 12 12 11 12 12 13 14 14 13 13 14 13 10 13
4 2 4 1 5 5 5 8 8 7 5 5 4 2 4 16 9 10 15 11 7 7 5 9 7 5 9 9 7 7 9 9 11 11 12 12 12 11 11 12 14 15 15 15 14 13 13 11 14
3 4 4 3 4 4 4 7 5 1 4 6 3 5 12 18 12 11 10 11 11 9 8 6 5 3 8 13 11 9 9 11 12 13 13 12 12 12 12 12 14 16 15 15 14 13 13 13 16
4 2 3 2 5 6 6 8 5 8 6 7 3 5 7 12 18 12 15 14 12 10 8 6 3 3 4 9 15 13 12 12 13 15 14 13 13 13 13 12 12 12 13 13 14 14 13 15 17
3 3 3 5 4 3 6 6 7 6 9 7 7 4 8 22 16 15 17 16 16 16 16 14 9 4 8 8 12 14 14 13 14 14 15 13 12 13 12 12 13 13 13 13 14 14 13 16 18
2 1 5 4 6 3 5 2 8 6 5 7 9 8 7 12 12 12 11 12 12 13 14 16 15 14 8 6 9 13 15 14 13 13 11 11 12 11 11 11 11 14 12 13 13 15 15 17 19
2 2 2 5 5 4 5 7 8 4 8 11 11 13 8 10 11 11 9 12 11 11 12 14 13 14 11 12 8 6 12 13 12 11 12 10 6 7 10 10 12 13 13 12 12 14 15 15 15
2 2 5 5 6 7 8 6 4 5 10 7 10 13 10 10 10 11 12 12 13 14 14 14 14 14 11 11 10 6 8 5 7 9 10 8 8 7 9 9 14 10 6 7 12 13 11 14 8
2 2 4 4 7 7 4 5 1 4 7 9 9 8 9 10 11 12 10 8 9 8 11 14 13 15 13 11 8 5 3 6 6 7 9 9 8 8 5 4 3 4 5 3 4 5 6 8 8
4 2 3 4 6 5 3 4 9 10 9 14 10 8 10 11 11 12 11 12 13 12 13 16 14 14 15 10 9 7 5 6 8 9 10 7 7 7 6 4 5 4 4 4 7 5 6 3 7
5 3 2 4 3 1 5 3 10 12 15 11 9 10 10 9 11 10 11 10 11 14 12 13 15 13 13 14 11 11 10 5 8 10 12 10 9 10 6 5 5 6 6 6 7 7 8 5 6
3 5 8 0 2 3 5 2 4 14 14 10 9 9 8 9 10 10 12 11 11 11 11 11 13 13 12 11 12 11 9 11 7 9 10 15 12 10 9 6 6 8 8 7 8 10 9 8 5
3 4 5 5 3 2 3 5 7 17 13 10 9 7 7 8 8 9 9 10 12 11 11 11 13 15 15 16 15 11 10 11 11 10 13 15 14 14 12 9 8 8 9 11 7 8 8 8 6
4 3 5 9 8 6 2 3 8 10 11 9 8 7 8 8 9 9 9 9 9 11 12 12 9 12 15 17 14 11 9 10 11 10 12 17 17 17 14 10 10 10 10 11 11 10 9 9 9
5 3 8 2 10 6 7 4 11 10 12 8 7 7 7 7 9 7 8 8 8 9 13 17 13 8 8 14 14 14 10 5 9 11 11 16 19 18 14 12 10 15 14 13 12 10 11 10 10
4 6 6 6 2 7 6 10 8 9 11 9 7 7 6 7 7 8 9 9 9 9 8 9 12 15 10 8 9 12 11 9 5 9 10 17 15 15 18 13 14 14 15 15 14 15 11 12 12
5 7 10 10 4 0 7 8 9 13 9 8 7 6 5 6 7 7 6 7 9 9 9 12 13 14 13 11 10 11 11 12 10 9 13 14 13 16 14 11 17 13 14 14 16 14 16 11 12
6 9 11 4 4 5 10 16 4 14 11 9 8 4 4 6 7 6 8 9 10 13 13 17 17 18 15 13 10 13 13 12 12 10 11 10 11 14 14 15 14 16 14 17 17 18 11 9 13
7 8 4 4 7 10 17 14 9 9 6 7 7 4 6 7 7 6 6 8 15 15 16 17 19 21 19 20 11 15 15 12 10 12 10 10 8 9 14 16 17 21 13 15 23 19 20 13 11
5 4 3 8 6 5 8 9 4 13 11 9 7 6 6 6 5 6 6 15 16 15 15 18 20 21 20 15 21 23 15 20 14 13 12 10 7 9 9 16 12 17 16 15 14 19 18 16 18
2 2 6 10 12 11 10 7 5 20 14 12 8 6 6 5 5 7 10 13 16 14 16 17 21 21 19 20 22 20 22 15 17 17 15 15 9 7 5 12 19 16 8 23 18 19 22 17 17
7 6 9 13 9 5 7 5 5 11 15 10 7 6 5 5 5 9 11 14 15 15 17 17 19 19 20 19 24 24 23 21 18 19 16 15 11 5 4 6 12 15 22 21 14 18 21 20 19
3 4 5 6 2 8 6 5 9 7 10 10 7 5 4 5 10 10 13 14 16 20 18 18 22 23 21 21 21 20 23 25 22 19 16 19 10 4 7 5 10 11 12 18 13 16 18 22 19
3 0 6 7 4 6 8 9 5 13 11 9 8 5 6 9 7 10 12 15 16 18 20 20 22 24 23 22 22 19 20 14 16 17 15 13 16 7 8 6 5 12 13 15 19 13 15 14 19
4 4 1 2 2 3 6 7 5 11 9 7 6 7 7 6 8 10 14 15 13 17 18 19 20 23 22 21 20 19 18 20 17 21 18 14 17 15 7 6 4 8 10 14 17 12 16 17 17
2 3 4 1 3 8 6 8 5 9 5 6 5 4 4 6 10 11 13 12 15 15 16 18 18 20 21 22 17 18 19 19 20 18 20 20 17 19 16 8 7 4 10 11 11 11 24 17 15
4 4 4 1 5 6 4 6 7 8 7 4 2 3 7 8 8 11 14 12 16 13 16 18 18 20 20 18 18 20 18 20 18 17 19 17 18 19 18 13 7 4 8 9 12 18 14 20 18
0 6 9 6 6 4 6 17 5 2 9 7 4 4 5 7 9 14 10 16 17 17 18 19 21 20 20 19 20 18 22 18 21 19 19 16 18 18 15 16 11 8 8 8 11 16 10 19 25
Wind_Direction
284 236 235 309 308 189 67 87 252 35 23 44 5 20 310 245 349 24 176 40 7 4 107 147 181 204 214 199 204 206 203 201 212 216 216 225 240 250 247 242 243 251 249 250 245 240 234 213 201
306 297 272 272 240 139 94 63 49 54 45 1 316 336 19 358 48 55 45 17 353 359 354 128 164 205 216 205 201 205 214 215 219 220 223 235 236 242 257 254 245 242 248 245 250 247 238 204 187
269 270 281 227 275 45 54 54 44 78 97 26 355 14 79 13 17 45 31 26 18 345 28 58 88 160 250 229 213 211 214 220 224 228 239 240 246 247 248 254 254 242 247 247 242 247 245 205 183
317 224 264 261 47 91 41 55 25 7 123 107 48 354 78 33 37 18 359 356 15 2 19 87 53 355 299 284 260 236 230 227 230 240 240 243 247 247 249 245 253 254 245 244 246 244 243 212 187
236 264 266 239 110 92 76 60 21 340 42 64 61 338 85 30 26 21 358 4 7 9 24 41 74 13 309 299 281 267 254 243 248 243 240 244 248 244 242 248 250 268 253 255 250 243 240 207 187
300 217 294 338 81 90 86 42 322 25 350 40 65 349 62 30 26 7 14 15 8 4 12 4 52 228 276 288 298 285 260 249 246 244 245 242 245 244 247 248 252 261 261 263 260 254 234 199 185
307 331 317 337 74 151 75 12 43 349 34 32 342 319 58 33 21 25 29 25 24 20 16 2 346 318 202 250 267 277 288 277 256 244 238 238 242 245 250 244 240 245 256 262 267 255 238 195 184
306 282 280 79 37 65 99 315 90 35 64 111 14 29 9 16 26 30 28 24 27 24 21 13 2 353 326 298 247 247 251 258 265 249 241 235 236 244 250 246 240 240 242 252 259 246 230 195 185
301 297 269 32 12 8 85 39 37 136 66 45 61 70 60 30 26 33 30 24 20 26 18 12 3 0 341 329 315 279 248 248 255 243 240 238 238 238 230 227 228 235 233 240 247 228 217 192 158
283 300 26 6 15 11 9 48 22 59 59 38 56 54 47 48 33 32 32 21 15 14 7 11 2 356 354 346 331 308 312 275 241 241 245 235 234 229 237 218 218 209 209 246 230 210 189 152 170
356 298 7 11 43 12 316 51 357 111 51 57 72 60 45 46 42 34 25 20 10 4 10 4 356 352 352 350 335 318 312 303 297 263 243 240 228 230 227 180 169 180 192 209 176 141 158 168 162
289 44 349 21 46 2 354 281 79 78 83 85 73 64 53 38 39 27 20 20 13 6 6 2 357 359 353 349 343 326 323 309 297 289 281 252 245 236 229 195 182 159 151 149 130 118 98 154 179
213 112 230 277 299 329 308 104 126 93 94 92 85 67 56 52 37 25 14 16 13 4 1 7 349 1 348 349 339 338 325 299 299 295 289 282 264 248 231 221 166 165 161 166 156 145 135 129 97
360 307 275 146 91 146 2 48 149 107 114 105 96 82 69 60 46 23 17 11 7 359 353 359 355 351 347 343 339 327 320 323 304 295 282 279 269 255 244 221 187 175 168 182 171 164 162 147 171
291 288 125 186 174 152 348 214 184 119 120 102 84 72 61 63 48 32 13 9 2 358 348 352 353 349 348 340 334 328 325 323 320 309 299 282 272 263 250 232 199 190 170 181 176 160 159 151 170
252 214 202 167 191 154 112 285 102 121 125 105 98 68 47 33 38 28 3 7 357 354 354 344 346 345 341 333 325 313 314 322 317 315 320 306 288 275 256 240 217 192 175 180 178 173 168 176 173
214 315 320 290 190 139 185 268 120 117 123 126 100 71 50 40 26 20 7 359 1 354 359 346 332 328 327 325 318 313 305 305 314 316 316 311 309 289 258 245 228 199 178 182 174 168 173 172 180
326 306 302 290 176 196 268 253 124 138 136 132 102 86 61 43 19 16 2 8 360 343 349 330 332 325 317 308 302 305 304 301 294 302 302 307 300 317 310 255 247 243 178 179 171 166 179 176 172
272 262 271 279 111 159 243 262 259 150 141 138 120 98 68 48 15 11 15 11 356 335 340 327 319 315 309 309 311 305 299 295 297 289 293 307 321 317 307 323 274 226 244 174 172 162 167 168 172
276 271 274 298 139 351 270 261 154 164 168 148 128 112 62 25 18 8 11 7 348 335 336 329 322 320 316 302 306 301 293 286 291 285 280 284 298 309 310 306 318 273 216 186 180 168 169 171 172
282 284 319 289 312 272 275 271 150 155 132 143 157 159 58 33 8 356 2 351 352 337 332 327 325 319 318 302 309 307 289 283 286 283 278 270 271 301 313 301 282 305 253 200 174 176 176 169 182
279 50 311 280 309 241 53 285 85 167 174 180 156 88 48 17 3 336 341 5 345 328 330 327 318 324 313 319 317 302 308 296 290 276 279 278 260 280 306 305 270 276 307 235 194 178 179 170 181
250 329 257 260 252 283 255 257 283 157 190 182 141 92 41 12 356 318 12 354 335 326 327 325 322 312 324 319 311 305 296 304 301 289 280 281 269 266 314 322 316 292 304 267 213 179 177 180 180
324 287 271 251 257 272 254 226 230 179 197 142 117 68 35 353 322 360 3 337 325 331 326 323 323 321 323 328 319 308 311 318 316 302 285 283 278 249 264 292 292 314 270 284 215 193 185 180 182
226 289 325 334 11 227 74 329 240 139 98 120 101 60 25 346 14 1 336 334 325 331 324 332 326 319 322 321 314 315 313 308 302 306 313 286 272 230 248 259 296 283 308 285 262 201 194 184 183
202 150 159 257 259 267 25 253 248 123 125 131 89 70 29 17 356 337 330 327 331 326 329 329 326 321 322 320 316 313 307 300 305 301 307 306 308 249 235 233 270 297 292 291 289 218 191 204 180
153 201 13 2 57 2 231 260 69 140 149 95 48 40 22 349 334 332 331 328 327 324 327 324 323 319 316 317 313 312 306 305 304 307 302 299 303 302 225 219 248 297 322 299 281 308 197 192 193
252 160 78 124 291 266 250 251 236 186 155 76 21 19 341 341 342 334 325 314 329 322 321 317 320 315 313 317 313 310 307 308 302 298 301 301 300 305 284 217 209 251 282 302 278 290 247 181 191
168 226 222 346 192 219 296 257 150 156 156 113 5 12 1 336 330 325 313 328 322 321 316 315 316 318 315 314 318 308 312 299 297 300 298 300 306 311 324 264 222 226 289 292 293 266 272 178 184
305 223 181 161 245 257 251 261 329 100 137 113 68 7 309 327 326 324 322 329 323 323 322 321 322 322 318 317 313 314 311 307 299 291 292 303 305 298 313 312 250 205 222 280 309 297 262 225 187